Weather History for South Lake Tahoe, CA

Change the Weather History Date:

Saturday, August 23, 2014

  Actual Average Record
Temperature  
Mean Temperature 57 °F 59 °F  
Max Temperature 76 °F 79 °F 90 °F (1931)
Min Temperature 38 °F 39 °F 29 °F (1992)
Degree Days  
Heating Degree Days 8 6  
Month to date heating degree days 62 106  
Since 1 June heating degree days 286 554  
Since 1 July heating degree days 76 244  
Cooling Degree Days 0 0  
Month to date cooling degree days 8 7  
Year to date cooling degree days 95 26  
Since 1 June cooling degree days 95 26  
Growing Degree Days 6 (Base 50)    
Moisture  
Dew Point 36 °F    
Average Humidity 51    
Maximum Humidity 79    
Minimum Humidity 23    
Precipitation  
Precipitation 0.00 in - 0.24 in (1976)
Month to date precipitation 0.98  
Year to date precipitation 13.88  
Sea Level Pressure  
Sea Level Pressure 30.00 in    
Wind  
Wind Speed 3 mph (SE)    
Max Wind Speed 12 mph    
Max Gust Speed 19 mph    
Visibility 10 miles    
Events      
T = Trace of Precipitation, MM = Missing Value Source: NWS Daily Summary

Daily Weather History Graph

Daily Weather History Graph

Search for Another Location

Airport:

Trip Planner

Search our weather history database for the weather conditions in past years. The results will help you decide how hot, cold, wet, or windy it might be!

Date:

Astronomy

Aug. 23, 2014 Rise Set
Actual Time 6:20 AM PDT 7:43 PM PDT
Civil Twilight 5:53 AM PDT 8:11 PM PDT
Nautical Twilight 5:19 AM PDT 8:44 PM PDT
Astronomical Twilight 4:44 AM PDT 9:19 PM PDT
Moon 4:42 AM PDT (8/23) 6:31 PM PDT (8/23)
Length of Visible Light 14h 18m
Length of Day
13h 22m
Waning Crescent, 3% of the Moon is Illuminated
Aug 23
Waning Crescent
Aug 25
New
Sep 2
First Quarter
Sep 8
Full
Sep 15
Last Quarter

Hourly Weather History & Observations

Time (PDT) Temp. Windchill Dew Point Humidity Pressure Visibility Wind Dir Wind Speed Gust Speed Precip Events Conditions
12:53 AM 46.9 °F - 36.0 °F 66% 30.00 in 10.0 mi Calm Calm - N/A   Clear
2:53 AM 43.0 °F - 34.0 °F 71% 30.02 in 10.0 mi Calm Calm - N/A   Clear
4:53 AM 39.9 °F 37.8 °F 32.0 °F 73% 30.03 in 10.0 mi South 3.5 mph - N/A   Clear
5:53 AM 39.0 °F 36.8 °F 30.9 °F 73% 30.04 in 10.0 mi SSW 3.5 mph - N/A   Clear
6:53 AM 37.9 °F 34.4 °F 30.9 °F 76% 30.06 in 10.0 mi South 4.6 mph - N/A   Clear
7:53 AM 46.9 °F - 34.0 °F 61% 30.06 in 10.0 mi SSW 5.8 mph - N/A   Clear
8:53 AM 57.9 °F - 35.1 °F 42% 30.03 in 10.0 mi Calm Calm - N/A   Clear
9:53 AM 66.0 °F - 35.1 °F 32% 30.01 in 10.0 mi NNE 4.6 mph - N/A   Clear
10:53 AM 68.0 °F - 34.0 °F 28% 30.02 in 10.0 mi Variable 3.5 mph - N/A   Clear
11:53 AM 70.0 °F - 33.1 °F 26% 30.02 in 10.0 mi Variable 4.6 mph - N/A   Clear
12:53 PM 73.0 °F - 39.0 °F 29% 30.00 in 10.0 mi NNE 9.2 mph - N/A   Clear
1:53 PM 73.0 °F - 35.1 °F 25% 30.00 in 10.0 mi Variable 5.8 mph - N/A   Clear
2:53 PM 73.9 °F - 37.0 °F 26% 29.98 in 10.0 mi Variable 3.5 mph - N/A   Partly Cloudy
3:53 PM 73.9 °F - 37.0 °F 26% 29.98 in 10.0 mi NNE 5.8 mph 18.4 mph N/A   Clear
4:53 PM 75.0 °F - 36.0 °F 24% 29.96 in 10.0 mi NNE 4.6 mph - N/A   Clear
5:53 PM 73.9 °F - 36.0 °F 25% 29.96 in 10.0 mi Variable 3.5 mph - N/A   Mostly Cloudy
6:53 PM 69.1 °F - 39.0 °F 33% 29.97 in 10.0 mi NNE 3.5 mph - N/A   Clear
7:53 PM 66.0 °F - 43.0 °F 43% 29.96 in 10.0 mi Calm Calm - N/A   Mostly Cloudy
8:53 PM 62.1 °F - 44.1 °F 52% 29.97 in 10.0 mi Calm Calm - N/A   Clear
9:53 PM 59.0 °F - 39.0 °F 48% 29.95 in 10.0 mi Variable 4.6 mph - N/A   Clear
10:53 PM 55.9 °F - 39.9 °F 55% 29.96 in 10.0 mi South 6.9 mph - N/A   Clear
11:53 PM 53.1 °F - 39.0 °F 59% 29.96 in 10.0 mi SSW 3.5 mph - N/A   Clear